AO-07 1 07530U 74089B 16301.13278045 -.00000027 00000-0 10738-3 0 9996 2 07530 101.5941 268.7605 0012421 54.8687 6.8862 12.53623915919657 FO-29 1 24278U 96046B 16300.79287564 -.00000044 00000-0 -74417-5 0 9994 2 24278 098.5823 208.7751 0349636 221.7426 135.6554 13.53071137997055 RS-22 1 27939U 03042A 16301.50989975 .00000329 00000-0 67669-4 0 9994 2 27939 97.9074 88.2370 0011843 241.9554 159.9133 14.66476935699212 AO-73 1 39444U 13066AE 16300.82921064 .00000730 00000-0 97872-4 0 9999 2 39444 097.6655 348.7322 0057536 311.4177 048.2099 14.81227552156475 EO-79 1 40025U 14033R 16301.32285009 .00000948 00000-0 10883-3 0 9996 2 40025 97.9190 206.6799 0012640 357.2468 2.8677 14.88185378127851 XW-2A 1 40903U 15049E 16301.47360935 .00005867 00000-0 16167-3 0 9993 2 40903 97.4407 318.2717 0016286 27.8686 332.3427 15.37399449 61878 XW-2C 1 40906U 15049H 16301.50680664 .00002606 00000-0 14686-3 0 9996 2 40906 97.4548 305.7745 0014046 303.9865 56.0031 15.14003644 61020 LILACSAT-2 1 40908U 15049K 16301.48339041 .00001261 00000-0 75362-4 0 9990 2 40908 97.4615 305.5405 0014855 297.7321 62.2403 15.12795978 60985 UO-11 1 14781U 84021B 16301.36643901 .00000284 00000-0 41371-4 0 9993 2 14781 97.7332 349.2080 0007285 236.7021 123.3496 14.82816323755848 LO-19 1 20442U 90005G 16301.39743247 .00000048 00000-0 33445-4 0 9991 2 20442 98.5526 234.5469 0012798 113.1327 247.1207 14.32835939398287 AO-27 1 22825U 93061C 16300.91127568 .00000039 00000-0 32747-4 0 9996 2 22825 098.7771 258.0804 0007470 296.9716 063.0702 14.29973951203794 IO-26 1 22826U 93061D 16300.92575639 .00000036 00000-0 31518-4 0 9996 2 22826 098.7714 258.2041 0007913 286.4232 073.6080 14.30300306203983 GO-32 1 25397U 98043D 16300.92376748 .00000015 00000-0 25308-4 0 9994 2 25397 098.5809 242.5253 0001092 016.2477 343.8737 14.23606533950382 NO-44 1 26931U 01043C 16301.48717803 .00000019 00000-0 39294-4 0 9999 2 26931 67.0516 331.5807 0005462 272.1144 87.9331 14.30431624787060 SO-50 1 27607U 02058C 16301.49354220 .00000284 00000-0 61598-4 0 9994 2 27607 64.5537 116.5935 0052689 185.9935 174.0543 14.75234357744789 CO-55 1 27844U 03031E 16300.96446893 .00000128 00000-0 77905-4 0 9994 2 27844 098.6931 307.3627 0008832 305.9032 054.1326 14.21988318691130 CO-57 1 27848U 03031J 16300.97196304 .00000102 00000-0 66413-4 0 9992 2 27848 098.7027 307.5249 0008848 315.5282 044.5184 14.21610049691031 CO-65 1 32785U 08021C 16301.47383899 .00000668 00000-0 78995-4 0 9990 2 32785 97.5908 330.1070 0012332 213.5716 146.4720 14.87709198460294 PRISM 1 33493U 09002B 16301.51921713 .00002653 00000-0 24627-3 0 9993 2 33493 98.1965 167.7346 0016650 127.2243 233.0543 14.95252100421001 TISAT-1 1 36799U 10035E 16301.35418670 .00001207 00000-0 13089-3 0 9992 2 36799 98.0416 53.7754 0012736 17.9289 342.2375 14.90068375341108 ALMASAT-1 1 38078U 12006B 16301.24468011 .00035694 38713-5 43388-3 0 9995 2 38078 69.4453 33.9335 0359029 271.3356 84.6702 15.10419467249471 DUCHIFAT-1 1 40021U 14033M 16301.29480212 .00001461 00000-0 15899-3 0 9994 2 40021 97.9228 208.0618 0013211 354.6545 5.4529 14.89556078127920 NANOSATCBR1 1 40024U 14033Q 16301.26218040 .00001125 00000-0 12569-3 0 9990 2 40024 97.9199 207.2574 0012446 355.6255 4.4851 14.88930416127883 DTUSAT-2 1 40030U 14033W 16301.26958255 .00000917 00000-0 10640-3 0 9992 2 40030 97.9164 205.9639 0011949 351.8923 8.2098 14.87816118127815 ANTELSAT 1 40034U 14033AA 16301.24548307 -.00000038 00000-0 22379-5 0 9996 2 40034 97.8828 185.9829 0058722 322.9377 36.7765 14.73515922126624 MET-2/21 1 22782U 93055A 16301.21789150 .00000039 00000-0 22161-4 0 9995 2 22782 82.5520 208.4553 0022858 7.7421 155.9780 13.83795039169478 NOAA-15 1 25338U 98030A 16301.50880210 .00000055 00000-0 41969-4 0 9999 2 25338 98.7853 305.9404 0010996 156.9631 203.2044 14.25760254959840 NOAA-18 1 28654U 05018A 16301.75626864 -.00000218 00000-0 -92942-4 0 9997 2 28654 99.1957 312.1313 0014404 7.0219 353.1087 14.12309445589443 NOAA-19 1 33591U 09005A 16301.44614944 .00000127 00000-0 94299-4 0 9999 2 33591 99.0578 259.4106 0013448 203.4097 156.6463 14.12120162397801 HUBBLE 1 20580U 90037B 16300.92682870 .00000985 00000-0 50237-4 0 9999 2 20580 028.4692 108.6249 0002744 180.9556 065.7664 15.08564987254939 ISS 1 25544U 98067A 16301.78082193 .00005218 00000-0 85316-4 0 9992 2 25544 51.6436 116.7016 0007011 116.3308 340.8429 15.54353862 25616 CO-58 1 28895U 05043F 16300.93735399 .00000360 00000-0 78254-4 0 9991 2 28895 097.8418 108.3398 0017391 157.7592 202.4369 14.63283976586149 AAUSAT2 1 32788U 08021F 16300.64068945 .00001265 00000-0 12522-3 0 9990 2 32788 097.5895 339.0900 0012022 184.2579 175.8541 14.93499125460716 DO-64 1 32789U 08021G 16301.16579352 .00004881 00000-0 35740-3 0 9992 2 32789 97.5935 358.0294 0013680 167.1626 192.9951 15.03953300461834 CO-66 1 32791U 08021J 16301.49786137 .00000995 00000-0 10864-3 0 9994 2 32791 97.5906 333.7399 0013010 200.5727 159.4969 14.89967001460496 RS-30 1 32953U 08025A 16301.27953520 .00000002 00000-0 -55496-4 0 9997 2 32953 82.5075 24.5017 0019824 76.2219 284.1066 12.43072299382482 JUGNU 1 37839U 11058B 16301.53111352 .00000378 00000-0 59552-4 0 9995 2 37839 19.9617 61.1476 0018925 138.5667 303.7544 14.12559729260763 SRMSAT 1 37841U 11058D 16300.84337890 .00000338 00000-0 40634-4 0 9995 2 37841 19.9715 102.2029 0011863 38.0770 74.2554 14.10556143260293 AO-71 1 37854U 11061E 16301.34951658 .00003772 00000-0 21162-3 0 9992 2 37854 101.6986 50.6764 0170605 43.5900 317.8645 15.03050043271946 HRBE 1 37855U 11061F 16300.86375151 .00004183 00000-0 22941-3 0 9990 2 37855 101.7099 047.9189 0183787 050.0231 311.6956 15.01980654271280 HORYU-2 1 38340U 12025D 16301.51392649 .00000632 00000-0 10175-3 0 9996 2 38340 98.3664 291.4064 0010837 316.8988 43.1371 14.75165534238984 RS-40 1 38735U 12041C 16301.51503951 .00000025 00000-0 10732-3 0 9997 2 38735 82.4719 109.2701 0016959 173.0268 187.1050 12.42573954192800 BEESAT-3 1 39134U 13015E 16301.35364654 .00005502 00000-0 28774-3 0 9990 2 39134 64.8705 257.3534 0018426 301.7547 58.1782 15.16745888194153 BEESAT-2 1 39136U 13015G 16301.37313063 .00004394 00000-0 24863-3 0 9995 2 39136 64.8712 264.9148 0018183 307.6050 52.3423 15.14249115194015 ZACUBE-1 1 39417U 13066B 16300.93974560 .00000592 00000-0 81900-4 0 9991 2 39417 097.6642 348.0756 0058380 313.4939 046.1429 14.80530394158264 TRITON-1 1 39427U 13066M 16300.84468051 .00000586 00000-0 10222-3 0 9996 2 39427 097.6564 325.6692 0114949 016.7439 343.7512 14.67302977156637 GOMX-1 1 39430U 13066Q 16301.44283208 .00001128 00000-0 21398-3 0 9995 2 39430 97.6663 312.3065 0153404 58.2831 303.3240 14.58710487156004 LO-74 1 39440U 13066AA 16300.73710729 .00000546 00000-0 83934-4 0 9998 2 39440 97.6590 338.9671 0080343 338.4198 21.3632 14.75283814157675 SPROUT 1 39770U 14029E 16301.04629089 .00001856 00000-0 21985-3 0 9999 2 39770 97.8737 36.8311 0009278 21.1970 338.9654 14.85748499131515 EO-80 1 40032U 14033Y 16301.30155508 .00000925 00000-0 10748-3 0 9997 2 40032 97.9170 206.0045 0011887 352.0008 8.1017 14.87750490127815 VELOX-1 1 40057U 14034E 16301.45764655 .00000822 00000-0 12443-3 0 9990 2 40057 98.1927 32.2380 0012358 87.2026 273.0608 14.76885321125409 DAURIA DX 1 1 40071U 14037C 16301.43986326 .00001311 00000-0 17693-3 0 9994 2 40071 98.3316 37.4521 0009774 82.8718 277.3606 14.80906974124520 UKUBE-1 1 40074U 14037F 16301.50859369 .00001970 00000-0 24797-3 0 9995 2 40074 98.3374 40.2378 0005950 86.3395 273.8494 14.83259530124686 HODOYOSHI-1 1 40299U 14070B 16301.44839297 .00002935 00000-0 13241-3 0 9996 2 40299 97.4221 21.5681 0013213 182.5140 236.7502 15.21729877109548 CHUBUSAT-1 1 40300U 14070C 16301.53118127 .00002679 00000-0 12596-3 0 9998 2 40300 97.4162 19.5033 0020521 191.6658 264.7793 15.20276347109437 QSAT-EOS 1 40301U 14070D 16301.48926497 .00006311 00000-0 27660-3 0 9995 2 40301 97.4119 18.9895 0028490 191.2212 264.9020 15.21983554109424 FIREBIRD FU3 1 40377U 15003B 16301.33096316 .00006214 00000-0 27301-3 0 9991 2 40377 99.0998 73.4453 0141240 53.4316 307.9813 15.13795714 95768 FIREBIRD FU4 1 40378U 15003C 16301.32625949 .00006323 00000-0 27733-3 0 9991 2 40378 99.1000 73.4605 0141430 53.3683 308.0453 15.13815114 95769 GRIFEX 1 40379U 15003D 16301.42726473 .00004723 00000-0 21823-3 0 9993 2 40379 99.1008 72.2919 0146385 57.9188 303.6154 15.11754225 95703 NO-84 1 40654U 15025D 16300.34417206 .00021087 00000-0 41481-3 0 02676 2 40654 054.9965 198.1183 0199177 040.6503 320.9300 15.28661898044078 NO-83 1 40655U 15025E 16300.16797492 .00031621 00000-0 54807-3 0 02957 2 40655 054.9833 187.4839 0176486 046.1821 315.3709 15.35197921044186 DEORBITSAIL 1 40719U 15032E 16300.76920997 .00000993 00000-0 15220-3 0 9995 2 40719 98.0008 191.1410 0016491 169.5020 190.6537 14.75758554 69893 NUDT-PHONESAT 1 40900U 15049B 16301.45329348 .00006399 00000-0 31791-3 0 9992 2 40900 97.4454 306.9275 0013502 322.7790 37.2506 15.17930603 61130 XW-2D 1 40907U 15049J 16301.50339600 .00002815 00000-0 15805-3 0 9994 2 40907 97.4515 305.6004 0013375 302.2994 57.6942 15.14071645 61025 XW-2F 1 40910U 15049M 16301.49025952 .00003967 00000-0 21727-3 0 9997 2 40910 97.4542 305.9307 0014278 300.5282 59.4540 15.14709263 60917 XW-2B 1 40911U 15049N 16301.50464806 .00002745 00000-0 15435-3 0 9997 2 40911 97.4561 305.8523 0013273 302.5710 57.4239 15.14046345 60929 DCBB 1 40912U 15049P 16301.53893961 .00003564 00000-0 18486-3 0 9998 2 40912 97.4534 307.1403 0014393 294.9047 182.9236 15.16716652 61012 TW-1C 1 40926U 15051B 16301.57808929 .00016430 00000-0 42713-3 0 9996 2 40926 97.2606 337.1495 0011603 295.6240 188.7208 15.38938980 61100 TW-1A 1 40928U 15051D 16301.38399573 .00006588 00000-0 20011-3 0 9997 2 40928 97.2573 335.2876 0012292 319.7717 99.8886 15.34330501 60989 IO-86 1 40931U 15052B 16301.40799372 -.00000766 00000-0 -19670-3 0 9999 2 40931 6.0025 92.3730 0013051 198.8866 161.0710 14.76490494 58504 GomX-3 1 40949U 98067HA 16292.18357804 .08527750 12374-4 77882-3 0 9992 2 40949 51.6055 106.7696 0006699 286.1344 73.8944 16.38002265 59645 LQSat 1 40958U 15057A 16301.44425708 .00000642 00000-0 10777-3 0 9996 2 40958 98.0043 14.5223 0019640 91.3612 268.9850 14.72916570 56855 AO-85 1 40967U 15058D 16300.23979162 .00000643 00000-0 90410-4 0 02965 2 40967 064.7776 208.4160 0187119 162.5840 198.1801 14.75205601042600 ATHENOXAT-1 1 41168U 15077C 16301.52607726 .00003947 00000-0 19219-3 0 9994 2 41168 14.9918 67.9134 0011928 28.1951 56.2944 15.10647146 47793 ChubuSat-2 1 41338U 16012B 16300.92571501 .00000820 00000-0 58190-4 0 9996 2 41338 031.0022 153.5072 0014175 270.8564 089.0447 14.99546911037946 ChubuSat-3 1 41339U 16012C 16301.02005331 .00001030 00000-0 74490-4 0 9997 2 41339 31.0139 152.4434 0013904 278.7807 81.1256 14.99767406 37936 Horyu-4 1 41340U 16012D 16300.95165900 .00001258 00000-0 91167-4 0 9991 2 41340 31.0042 151.7855 0014525 283.2197 76.6818 15.00278806 37952 OUFTI-1 1 41458U 16025C 16301.57027086 .00005322 00000-0 29317-3 0 9999 2 41458 98.2122 319.6833 0177501 347.0287 12.6400 15.01989194 27642 e-st@r-II 1 41459U 16025D 16300.97369686 .00004406 00000-0 24400-3 0 9998 2 41459 098.2128 319.0349 0177712 349.2382 010.5065 15.01909341027559 AAUSAT4 1 41460U 16025E 16301.54311401 .00008422 00000-0 46508-3 0 9991 2 41460 98.2026 319.6846 0172023 345.6649 13.9721 15.02381364 27648 MinXSS 1 41474U 98067HU 16301.53080127 .00037126 00000-0 36106-3 0 9995 2 41474 51.6414 111.5053 0002739 260.2586 99.8101 15.65907655 25609 CADRE 1 41475U 98067HV 16301.44629905 .00170425 00000-0 11212-2 0 9999 2 41475 51.6345 108.6355 0004536 265.3247 94.7235 15.74618483 25635 NODES 1 1 41477U 98067HX 16301.46619818 .00043500 00000-0 47396-3 0 9991 2 41477 51.6369 113.2950 0002462 244.7950 115.2789 15.62954734 25489 NODES 2 1 41478U 98067HY 16301.47145287 .00043500 00000-0 47577-3 0 9998 2 41478 51.6368 113.3282 0002365 244.8686 115.2063 15.62856902 25480 LO-87 1 41557U 16033B 16301.53117420 .00004943 00000-0 19410-3 0 9997 2 41557 97.4871 14.9142 0016431 106.7698 348.5533 15.26061775 22930 NuSat2 1 41558U 16033C 16301.54520015 .00005252 00000-0 20691-3 0 9994 2 41558 97.4893 14.9418 0015808 106.1183 350.8484 15.25926058 22935 Lapan A3 1 41603U 16040E 16301.55477105 .00000698 00000-0 36419-4 0 9990 2 41603 97.4957 359.8681 0014193 158.5438 334.4773 15.19175677 19335 Swayam 1 41607U 16040J 16300.86101204 .00005851 00000-0 27666-3 0 9990 2 41607 097.4947 359.1665 0015270 165.4300 194.7378 15.19670868019155 Pratham 1 41783U 16059A 16301.38746049 .00000279 00000-0 63773-4 0 9994 2 41783 98.2007 358.7455 0034016 168.3160 191.8839 14.62772910 4571 OBJECT B 1 41784U 16059B 16301.17479913 .00000130 00000-0 34651-4 0 9994 2 41784 98.1978 358.5524 0032006 169.5246 190.6628 14.63127943 4505 OBJECT C 1 41785U 16059C 16301.37810715 .00000017 00000-0 12796-4 0 9996 2 41785 98.2012 358.7601 0032013 167.5737 192.6257 14.63208235 4532 OBJECT D 1 41786U 16059D 16301.44171227 .00000178 00000-0 41089-4 0 9998 2 41786 98.2288 359.0691 0001181 94.8483 265.2860 14.66296778 4554 OBJECT E 1 41787U 16059E 16301.16788059 .00000007 00000-0 10729-4 0 9993 2 41787 98.2025 358.5643 0031397 167.9903 192.2159 14.63454063 4501 OBJECT F 1 41788U 16059F 16300.68557790 .00000185 00000-0 44823-4 0 9995 2 41788 98.1997 358.0875 0030155 171.8712 188.2975 14.63631802 4435 AlSat 1N 1 41789U 16059G 16301.36215667 .00000490 00000-0 10242-3 0 9992 2 41789 98.2023 358.7812 0028960 163.7719 196.4436 14.63966150 4545 ScatSat 1 41790U 16059H 16301.38362071 .00000335 00000-0 97050-4 0 9999 2 41790 98.1008 354.8419 0012375 139.9289 220.2817 14.50105163 4521 OBJECT J 1 41791U 16059J 16301.22519208 .00000055 00000-0 21237-4 0 9992 2 41791 98.2755 358.6289 0042121 175.8375 184.3184 14.60739710 4536 OBJECT K 1 41792U 16059K 16300.81328520 .00000447 00000-0 94023-4 0 9990 2 41792 098.2044 358.2460 0027679 170.3400 189.8339 14.64076119004459 /EX
